FALCON 9 R/B, 48839

Orbit data source: Space-Track

FALCON 9 R/B, 48839 is space debris in HEO originally from a launch on Sun, 06 Jun 2021 UTC launched from the Air Force Eastern Test Range (AFETR). Debris objects in space refer to the collection of defunct objects orbiting the Earth. Examples of debris include non-operational satellites, rocket bodies, and fragments generated from explosions, collisions, or faulty payload assembly.

Loading next visibility...
Identifier
48839, 2021-049B
Orbit
HEO
Country
Flag of USUS
Related business
Manufacturer
SpaceX
Mission
Spacecraft
Bus & Motor
F9ST2, Unknown motor
Mass
~4,000 kg wet, ~4,000 kg dry
Launch date (UTC)
2021-06-06 (4 years ago)
Launch vehicle
Unknown
Launch site
Air Force Eastern Test Range (AFETR)
Object type
Payload
Rocket body
Debris
Shape & HBR
Cyl, 7.8 m
Radar Cross Section
39.980 m², Large (>1 m²)

Expand to show TLE details & history
Last TLE update: 20 hours ago

TLE from 20 hours ago
0 FALCON 9 R/B
1 48839U 21049B   25260.93365698  .00060231  00000-0  15210-2 0  9995
2 48839  26.9893 154.8978 5349276  49.4546 346.1494  5.15566757 72378
Epoch: 2025-09-17T22:24Z
TLE epoch observation values (Epoch: 2025-09-17T22:24:27.963Z)
Latitude
-0.00005°
Longitude
-178.29518°
Altitude
1,111.354 km
Speed
8.848 km/s
True Right ascension
10h 19m 41s
True Declination
0° 00' 00"
Sunlit
Object was in daylight at epoch
Visualization orbit readout
Latitude
Unknown
Longitude
Unknown
Altitude
Unknown
Speed
Unknown
Apparent Right ascension
Unknown
Apparent Declination
Unknown
Sunlit
N/A
Visualization observer readout
Local Sidereal Time
10:45:45
Azimuth
Unknown
Elevation
Unknown
Doppler factor
Unknown
Orbital elements
Apogee altitude
15,352.684 km
Perigee altitude
206.151 km
Semi-major axis
14,157.554 km
Eccentricity
0.53493
Inclination
26.9893°
RAAN
154.8978°
Arg. of periapsis
49.4546°
True anomaly
310.53936°
Mean anomaly
346.1494°
Eccentric anomaly
331.54703°
Mean motion
1.28843 °/min
Orbital period
279.41 mins
BSTAR
0.001521
Loading maneuver chart data...
Computing Atmospheric mass density...
Loading historical data...
Loading historical data...
Loading historical data...
Loading historical data...
Loading historical data...
Loading historical data...
Loading historical data...
Other satellites on launch #49 in the year 2021 (2021-06-06 UTC)

Documentation

Showing up to 5 results
|